Regional Weather Roundup
Issued by NWS

Home | Current Version | Previous Version | Text Only | Print | Product List | Glossary Off
Versions: 1 2 3 4 5 6 7 8 9 10 11 12 13 14 15 16 17 18 19 20 21 22 23 24 25 26 27 28

000
ASUS45 KSLC 241210
RWRUT

UTAH REGIONAL WEATHER ROUNDUP
NATIONAL WEATHER SERVICE SALT LAKE CITY UT
600 AM MDT WED MAY 24 2017

UTZ001>011-023>025-241300-

NORTHERN UTAH

CITY           SKY/WX    TMP DP  RH WIND       PRES   REMARKS
BRIGHAM CITY   CLEAR     52  44  73 CALM      29.87F
HILL AFB       CLEAR     56  34  44 E16       29.89F
LOGAN          CLEAR     49  42  77 NE6       29.87F
OGDEN          CLEAR     54  36  50 S13       29.87F
SALT LAKE CITY CLEAR     61  41  47 SE10      29.87F
TOOELE VALLEY  CLEAR     54  39  58 SW6       29.87F
WENDOVER       CLEAR     57  40  52 NE5       29.86F
HEBER CITY     CLEAR     37  34  87 CALM      29.99F
WEST JORDAN    CLEAR     60  47  61 S7        29.90F

$$

UTZ011>015-024>027-241300-

CENTRAL/NORTHEAST UTAH

CITY           SKY/WX    TMP DP  RH WIND       PRES   REMARKS
PROVO AIRPORT  CLEAR     47  40  76 CALM      29.93F
MOAB/CANYONLAN CLEAR     48  26  42 CALM      29.94F
DELTA          CLEAR     48  37  66 NE7       29.93F
PRICE          CLEAR     49  32  52 NE6       30.00F
RICHFIELD        N/A     41  37  87 CALM      30.01F
ROOSEVELT      CLOUDY    41  34  75 SW3       29.99S
VERNAL         CLEAR     43  34  70 NW5       29.97F

$$

UTZ013>016-019>022-027-241300-

SOUTHERN UTAH

CITY           SKY/WX    TMP DP  RH WIND       PRES   REMARKS
BRYCE CANYON   PTCLDY    34  28  79 SW8       30.15F WCI  27
CEDAR CITY     CLEAR     57  30  35 SE9       30.00F
MILFORD        CLEAR     51  31  46 S9        29.95F
ST GEORGE      SUNNY     65  31  28 CALM      29.87S
HANKSVILLE     CLEAR     45  23  42 CALM      29.96F
KANAB          CLEAR     46  32  57 N6        30.04F
BLANDING       PTCLDY    46  31  56 NW9       30.10F

$$

REGIONAL REPORTS     COLORADO/ARIZONA

CITY           SKY/WX    TMP DP  RH WIND       PRES   REMARKS
CRAIG, CO      CLOUDY    33  30  88 CALM      30.02F
GRAND JUNCTION CLEAR     50  33  52 E10       29.98F
RIFLE, CO      CLOUDY    39  30  70 CALM      30.05F
MONTROSE, CO   CLOUDY    43  32  65 SE8       30.06S
CORTEZ, CO     CLOUDY    36  32  85 E6        30.06F WCI  31
COLORADO CITY    N/A     46  32  57 E6        30.01F
PAGE, AZ       CLEAR     61  36  39 W3        29.95F
GRAND CANYON   PTCLDY    34  27  75 CALM      30.12F
KINGMAN, AZ    CLEAR     73  25  16 MISG      29.89F
FLAGSTAFF, AZ  CLEAR     36  26  67 CALM      30.15F

$$

REGIONAL REPORTS    NEVADA/IDAHO/WYOMING

CITY           SKY/WX    TMP DP  RH WIND       PRES   REMARKS
LAS VEGAS, NV  CLEAR     81  24  12 S8        29.76F
ELY, NY        CLEAR     38  26  62 S10       30.05F WCI  31
ELKO, NV       CLEAR     46  39  76 CALM      29.95F
POCATELLO, ID  CLEAR     53  40  61 CALM      29.79F
BURLEY, ID     CLEAR     60  39  45 SW12      29.78F
FORT BRIDGER,    N/A     54  30  40 SW20G25   30.01F
EVANSTON, WY   CLOUDY    44  31  60 SW13      30.01F
ROCK SPRINGS,  CLEAR     50  30  46 W17       29.95F
KEMMERER, WY     N/A     43  32  65 W9        29.98F

$$




USA.gov is the U.S. government's official web portal to all federal, state and local government web resources and services.